Thessaloniki, Greece

8:52 PM EEST on August 30, 2016 (GMT +0300)
Makedonia

Weather History for LGTS - December, 2012

Change the Weather History Date:

Saturday, December 8, 2012

  Actual Average Record
Temperature  
Mean Temperature 38 °F -  
Max Temperature 48 °F 51 °F 60 °F (2005)
Min Temperature 29 °F 36 °F 29 °F (2012)
Degree Days  
Heating Degree Days 28    
Moisture  
Dew Point 35 °F    
Average Humidity 83    
Maximum Humidity 93    
Minimum Humidity 68    
Precipitation  
Precipitation 0.00 in 0.06 in - ()
Sea Level Pressure  
Sea Level Pressure 29.87 in    
Wind  
Wind Speed 3 mph ()    
Max Wind Speed 8 mph    
Max Gust Speed -    
Visibility 5.5 miles    
Events Rain    
Averages and records for this station are not official NWS values.
T = Trace of Precipitation, MM = Missing Value Source: Averaged Metar Reports

Daily Weather History Graph

Daily Weather History Graph

Search for Another Location

Airport or City:

Trip Planner

Search our weather history database for the weather conditions in past years. The results will help you decide how hot, cold, wet, or windy it might be!

Date:

Astronomy

Dec. 08, 2012 Rise Set
Actual Time 7:39 AM EET 5:01 PM EET
Civil Twilight 7:08 AM EET 5:31 PM EET
Nautical Twilight 6:34 AM EET 6:05 PM EET
Astronomical Twilight 6:01 AM EET 6:39 PM EET
Moon 1:41 AM EET (12/8) 1:21 PM EET (12/8)
Length of Visible Light 10h 23m
Length of Day
9h 22m
Waning Crescent, 31% of the Moon is Illuminated
Dec 8
Waning Crescent
Dec 13
New
Dec 20
First Quarter
Dec 28
Full
Jan 5
Last Quarter

Hourly Weather History & Observations

Time (EET) Temp. Windchill Dew Point Humidity Pressure Visibility Wind Dir Wind Speed Gust Speed Precip Events Conditions
12:20 AM 33.8 °F 30.8 °F 28.4 °F 81% 30.01 in 6.2 mi Variable 3.5 mph - N/A   Scattered Clouds
12:50 AM 32.0 °F 26.4 °F 26.6 °F 80% 30.01 in 6.2 mi ESE 5.8 mph - N/A   Partly Cloudy
1:20 AM 32.0 °F 26.4 °F 26.6 °F 80% 30.01 in 6.2 mi ESE 5.8 mph - N/A   Partly Cloudy
1:50 AM 32.0 °F - 28.4 °F 87% 30.01 in 6.2 mi Calm Calm - N/A   Partly Cloudy
2:00 AM 32 °F - 28 °F 78% 30.03 in 6 mi Calm Calm - -   Scattered Clouds
2:20 AM 30.2 °F 26.7 °F 26.6 °F 86% 30.01 in 6.2 mi Variable 3.5 mph - N/A   Partly Cloudy
3:20 AM 32.0 °F - 26.6 °F 80% 30.01 in 6.2 mi Calm Calm - N/A   Scattered Clouds
3:50 AM 30.2 °F - 26.6 °F 86% 30.01 in 6.2 mi Calm Calm - N/A   Scattered Clouds
4:20 AM 30.2 °F - 26.6 °F 86% 30.01 in 6.2 mi Calm Calm - N/A   Scattered Clouds
4:50 AM 30.2 °F 26.7 °F 26.6 °F 86% 29.98 in 6.2 mi Variable 3.5 mph - N/A   Scattered Clouds
5:20 AM 30.2 °F 26.7 °F 26.6 °F 86% 29.98 in 6.2 mi Variable 3.5 mph - N/A   Scattered Clouds
5:50 AM 32.0 °F 28.7 °F 28.4 °F 87% 29.98 in 6.2 mi Variable 3.5 mph - N/A   Scattered Clouds
6:20 AM 32.0 °F 28.7 °F 28.4 °F 87% 29.98 in 6.2 mi Variable 3.5 mph - N/A   Scattered Clouds
6:50 AM 32.0 °F 26.4 °F 28.4 °F 87% 29.98 in 6.2 mi ESE 5.8 mph - N/A   Scattered Clouds
7:20 AM 33.8 °F 29.6 °F 30.2 °F 87% 29.98 in 6.2 mi SSE 4.6 mph - N/A   Scattered Clouds
7:50 AM 33.8 °F 29.6 °F 30.2 °F 87% 29.98 in 6.2 mi South 4.6 mph - N/A   Mostly Cloudy
8:00 AM 35 °F - 31 °F 79% 29.99 in 6 mi South 4.6 mph - -   Scattered Clouds
8:20 AM 33.8 °F 29.6 °F 30.2 °F 87% 29.98 in 6.2 mi South 4.6 mph - N/A   Mostly Cloudy
8:50 AM 35.6 °F - 32.0 °F 87% 29.98 in 5.6 mi Calm Calm - N/A   Mostly Cloudy
9:20 AM 35.6 °F - 32.0 °F 87% 29.95 in 5.6 mi Calm Calm - N/A   Overcast
9:50 AM 37.4 °F - 33.8 °F 87% 29.95 in 5.6 mi Calm Calm - N/A   Overcast
10:20 AM 41.0 °F - 35.6 °F 81% 29.95 in 5.6 mi Calm Calm - N/A   Overcast
10:50 AM 41.0 °F - 37.4 °F 87% 29.95 in 5.0 mi Calm Calm - N/A   Overcast
11:20 AM 41.0 °F - 37.4 °F 87% 29.92 in 5.0 mi Calm Calm - N/A   Overcast
11:50 AM 42.8 °F - 37.4 °F 81% 29.92 in 5.0 mi Calm Calm - N/A   Overcast
12:20 PM 42.8 °F - 37.4 °F 81% 29.89 in 5.0 mi Calm Calm - N/A   Overcast
12:50 PM 42.8 °F 40.1 °F 37.4 °F 81% 29.89 in 5.0 mi NW 4.6 mph - N/A   Overcast
1:20 PM 42.8 °F 40.1 °F 37.4 °F 81% 29.89 in 4.3 mi NW 4.6 mph - N/A   Overcast
1:50 PM 44.6 °F - 37.4 °F 76% 29.86 in 5.0 mi Variable 2.3 mph - N/A   Mostly Cloudy
2:00 PM 44 °F - 37 °F 68% 29.86 in 5 mi 2.3 mph - -   Mist
2:20 PM 44.6 °F 43.1 °F 37.4 °F 76% 29.83 in 5.6 mi Variable 3.5 mph - N/A   Mostly Cloudy
2:50 PM 44.6 °F 43.1 °F 37.4 °F 76% 29.83 in 5.6 mi Variable 3.5 mph - N/A   Mostly Cloudy
3:20 PM 44.6 °F 41.4 °F 37.4 °F 76% 29.83 in 5.6 mi WNW 5.8 mph - N/A   Mostly Cloudy
3:50 PM 44.6 °F - 37.4 °F 76% 29.80 in 5.6 mi Variable 2.3 mph - N/A   Mostly Cloudy
4:20 PM 44.6 °F 41.4 °F 37.4 °F 76% 29.80 in 5.6 mi West 5.8 mph - N/A   Mostly Cloudy
4:50 PM 44.6 °F 41.4 °F 37.4 °F 76% 29.80 in 5.6 mi WNW 5.8 mph - N/A   Mostly Cloudy
5:20 PM 44.6 °F 43.1 °F 39.2 °F 81% 29.77 in 5.0 mi Variable 3.5 mph - N/A   Light Drizzle
5:50 PM 44.6 °F - 39.2 °F 81% 29.77 in 6.2 mi Variable 2.3 mph - N/A   Mostly Cloudy
6:20 PM 44.6 °F 43.1 °F 39.2 °F 81% 29.74 in 6.2 mi Variable 3.5 mph - N/A   Light Drizzle
6:50 PM 42.8 °F - 39.2 °F 87% 29.74 in 5.6 mi Variable 2.3 mph - N/A   Light Drizzle
7:20 PM 42.8 °F - 39.2 °F 87% 29.74 in 4.3 mi Variable 2.3 mph - N/A Rain Rain
7:50 PM 42.8 °F - 39.2 °F 87% 29.71 in 4.3 mi Calm Calm - N/A Rain Light Rain
8:00 PM 43 °F - 39 °F 82% 29.73 in 4 mi Calm Calm - - Rain Light Rain
8:20 PM 44.6 °F 43.1 °F 41.0 °F 87% 29.71 in 5.0 mi Variable 3.5 mph - N/A   Light Drizzle
8:50 PM 46.4 °F 43.5 °F 41.0 °F 81% 29.68 in 5.0 mi WNW 5.8 mph - N/A Rain Light Rain
9:20 PM 46.4 °F 43.5 °F 41.0 °F 81% 29.68 in 5.0 mi WNW 5.8 mph - N/A Rain Light Rain
9:50 PM 44.6 °F 41.4 °F 41.0 °F 87% 29.65 in 4.3 mi WNW 5.8 mph - N/A Rain Light Rain
10:20 PM 44.6 °F 41.4 °F 41.0 °F 87% 29.65 in 5.0 mi WNW 5.8 mph - N/A Rain Light Rain
10:50 PM 44.6 °F - 42.8 °F 93% 29.62 in 5.0 mi Calm Calm - N/A Rain Light Rain
11:20 PM 44.6 °F 40.2 °F 42.8 °F 93% 29.59 in 4.3 mi WNW 8.1 mph - N/A Rain Light Rain
11:50 PM 48.2 °F - 44.6 °F 87% 29.59 in 5.0 mi Variable 3.5 mph - N/A Rain Light Rain